Location: Janeiro
(34.9957°N, 76.7652°W)
Time: 04:17:15
(UTC+00:00)

Okean-O - Pass Details

Date: 14 December 2019
Orbit: 639 x 641 km, 98.2° (Epoch: 18 January)

Event Time Altitude Azimuth Distance (km) Brightness Sun altitude
Rises 23:33:46 0° 184° (S) 2,929 6.3 -19.3°
Reaches altitude 10° 23:36:05 10° 193° (SSW) 2,024 5.5 -19.8°
Maximum altitude 23:40:11 38° 261° (W) 979 4.1 -20.6°
Drops below altitude 10° 23:44:19 10° 330° (NNW) 2,037 5.4 -21.4°
Sets 23:46:40 0° 338° (NNW) 2,950 6.1 -21.9°
